Location: Hu�ek
(48.5687°N, 17.0544°E)
Time: 17:30:41
(UTC+00:00)

Daily predictions for brighter satellites

Satellite Brightness Start Highest point End
(mag) Time Altitude Azimuth Time Altitude Azimuth Time Altitude Azimuth
Cosmos 304 Rocket 4.1 16:08:57 10° SSW 16:13:43 71° WNW 16:18:32 10° NNE
USA 306 3.7 16:10:21 10° WNW 16:14:25 39° N 16:18:27 10° ENE
Cosmos 2227 Rocket 3.2 16:10:00 10° NNW 16:14:47 27° NE 16:19:33 10° ESE
Cosmos 1741 Rocket 4.1 16:09:41 10° NNW 16:14:58 88° WSW 16:20:11 10° SSE
Cosmos 1689 Rocket 3.7 16:14:47 10° NE 16:16:38 16° E 16:18:28 10° SE
Envisat 3.7 16:12:35 10° S 16:17:35 60° W 16:22:38 10° NNW
Cosmos 1908 3.2 16:14:03 10° S 16:17:52 77° E 16:21:45 10° NNE
YAOGAN 6 3.4 16:16:01 10° S 16:19:37 59° W 16:23:17 10° NNW
Meteor 2-14 Rocket 4.5 16:14:11 10° N 16:20:18 63° ENE 16:26:22 10° SSE
Cosmos 1656 Rocket 4.3 16:15:45 10° SW 16:21:16 61° WNW 16:26:53 10° NNE
SL-4 R/B 1.9 16:18:54 10° W 16:22:22 62° NNW 16:26:04 10° ENE
Cosmos 1655 Rocket 4.4 16:16:19 10° NNW 16:22:43 74° W 16:29:04 10° S
Cosmos 2263 Rocket 4.3 16:22:07 10° NNE 16:22:54 10° NNE 16:23:42 10° NNE
Cosmos 1953 3.3 16:20:13 10° SSW 16:24:04 50° WNW 16:27:57 10° N
Cosmos 1726 Rocket 4.2 16:20:51 10° SSE 16:24:45 33° E 16:28:41 10° NNE
Cosmos 1758 Rocket 3.5 16:20:23 10° N 16:24:50 76° E 16:29:12 10° SSE
Meteor 2-21 4.4 16:18:52 10° N 16:25:04 71° ENE 16:31:09 10° SSE
Aureole 3 Rocket 4.2 16:22:13 10° SE 16:25:19 22° E 16:29:12 10° NNE
Cosmos 1892 4.3 16:23:33 10° NNE 16:26:04 16° ENE 16:28:34 10° ESE
AQUARIUS 4.4 16:22:19 10° S 16:26:49 77° WSW 16:31:20 10° NNW
Okean-O 3.3 16:28:03 10° SE 16:31:59 32° ENE 16:35:57 10° N
Cosmos 1703 3.9 16:28:16 10° NNW 16:32:10 60° W 16:36:03 10° S
CZ-4C R/B 4.1 16:28:35 10° NW 16:33:17 22° N 16:38:39 10° NE
CZ-2D R/B 3.8 16:31:16 10° SE 16:34:45 35° ENE 16:38:14 10° N
FALCON 9 DEB 4.0 16:32:00 10° W 16:35:16 40° N 16:38:08 13° ENE
ADEOS Rocket 3.7 16:29:23 10° N 16:35:34 65° WNW 16:42:25 10° SSW
Cosmos 1697 Rocket 4.4 16:34:39 10° ESE 16:36:27 12° E 16:36:49 11° E
GEOS 3 Rocket 4.1 16:32:25 10° ESE 16:37:27 44° NE 16:42:34 10° NNW
Cosmos 1606 Rocket 3.6 16:35:10 10° S 16:39:26 59° E 16:43:47 10° NNE
Cosmos 2228 3.0 16:35:28 10° S 16:39:39 62° E 16:43:53 10° NNE
Cosmos 1300 3.0 16:36:08 10° SSE 16:39:46 44° E 16:43:25 10° NNE
Cosmos 2266 Rocket 4.4 16:34:27 10° NNW 16:40:37 69° W 16:46:52 10° S
Cosmos 1452 Rocket 4.1 16:35:56 10° SW 16:41:08 61° WNW 16:46:23 10° NNE
Cosmos 44 3.7 16:37:28 10° S 16:41:36 37° ESE 16:45:56 10° NE
Meteor 1-11 4.3 16:36:34 10° NNW 16:42:19 88° WSW 16:48:04 10° S
USA 281 4.1 16:36:04 10° S 16:42:27 54° WSW 16:48:54 10° NNW
Lacrosse 5 2.9 16:38:21 10° W 16:43:04 37° NNW 16:47:40 11° NE
SKYMED 2 3.9 16:38:56 10° NNE 16:43:07 45° E 16:47:17 10° S
NOAA 11 4.2 16:38:17 10° SSE 16:43:44 88° WSW 16:49:12 10° NNW
ERBS 4.1 16:46:12 10° WNW 16:48:57 23° NNW 16:51:29 11° NE
H-2A R/B 2.9 16:44:20 10° ESE 16:49:02 31° ENE 16:53:47 10° N
Cosmos 1408 4.0 16:48:39 10° NNE 16:51:16 18° ENE 16:51:27 18° ENE
Cosmos 1825 4.1 16:50:51 10° NNE 16:51:56 13° NE 16:51:56 13° NE
Meteor 2-16 Rocket 4.4 16:48:45 10° N 16:54:52 77° E 17:00:57 10° SSE
Cosmos 2369 Rocket 4.2 16:50:29 10° W 16:55:07 25° NW 16:59:50 10° N
Cosmos 2297 Rocket 2.3 16:49:53 10° NNW 16:55:29 55° ENE 17:01:02 10° SE
USA 307 3.5 16:52:37 10° WNW 16:56:45 44° N 16:59:19 20° ENE
CZ-4 R/B 4.4 16:52:39 10° SSE 16:56:47 67° ENE 17:00:56 10° N
CZ-4B R/B 2.1 16:53:59 10° N 16:57:11 53° WNW 17:00:17 10° SSW
In-Cosmos 22 Rocket 4.2 16:53:58 10° N 16:59:13 53° ENE 17:04:30 10° SSE
IRS-1C Rocket 4.1 16:54:06 10° SSE 16:59:22 89° ENE 17:04:41 10° NNW
USA 308 3.5 16:57:26 10° WNW 17:01:34 44° NNE 17:03:55 22° ENE
Ariane Rocket 4.5 17:01:34 17° ENE 17:02:01 17° NE 17:05:14 10° NNE
Helios 1A Rocket 2.8 17:01:18 10° SSE 17:05:24 75° ENE 17:09:32 10° N
FALCON 9 DEB 3.9 17:02:35 10° SSW 17:05:31 32° SE 17:06:17 28° ESE
CSL-04 Debris 4.5 17:01:01 10° SE 17:06:09 45° ENE 17:11:20 10° N
Cosmos 1953 Rocket 3.7 17:02:24 10° NNW 17:06:49 78° W 17:11:14 10° S
ERS-2 3.5 17:03:28 10° N 17:06:54 40° WNW 17:10:20 10° SW
Cosmos 1340 2.6 17:03:36 10° N 17:07:21 59° ENE 17:11:05 10° SSE
Cosmos 292 Rocket 3.7 17:03:05 10° SSW 17:07:51 75° ESE 17:12:41 10° NNE
Cosmos 2058 Rocket 3.1 17:03:48 10° S 17:08:12 59° E 17:12:39 10° NNE
Cosmos 1939 Rocket 3.0 17:04:27 10° S 17:08:25 73° WSW 17:12:21 10° NNW
FALCON 9 DEB 3.6 17:09:00 10° SSW 17:11:59 37° SE 17:12:33 34° ESE
SAR-Lupe-4 4.2 17:11:28 10° N 17:15:01 58° WNW 17:18:33 10° SSW
PSLV R/B 3.8 17:11:34 10° NNE 17:15:47 80° ESE 17:19:56 10° SSW
FALCON 9 DEB 3.4 17:18:13 10° SW 17:21:18 42° SE 17:21:32 41° SE
Cosmos 1331 Rocket 4.3 17:17:25 10° SSW 17:22:33 67° WNW 17:27:42 10° NNE
Cosmos 2219 3.2 17:16:44 10° NNW 17:22:33 87° ENE 17:28:19 10° SSE
Cosmos 2058 3.1 17:20:00 10° N 17:23:58 46° ENE 17:25:31 30° SE
S3M 4.1 17:18:48 10° SSE 17:24:36 48° E 17:30:29 10° NNE
CZ-4 R/B 1.3 17:24:17 10° S 17:28:12 79° WSW 17:32:05 10° NNW
COSMO-SKYMED 1 3.1 17:26:55 10° N 17:31:13 61° WNW 17:35:29 10° SSW
Cosmos 2082 3.9 17:27:05 10° NNW 17:32:41 51° NE 17:35:02 32° ESE
Aureole 3 3.0 17:30:38 10° SSW 17:33:50 65° W 17:36:49 10° N
SeaSat 1 2.5 17:32:11 31° ESE 17:34:22 58° NE 17:39:14 10° NNW
FALCON 9 DEB 3.2 17:31:51 10° SW 17:34:45 54° S 17:34:45 54° S
USA 215 3.5 17:33:06 29° E 17:36:22 55° NNE 17:42:43 10° NW
Cosmos 1417 Rocket 4.4 17:30:17 10° S 17:36:29 72° E 17:42:48 10° NNE
Cosmos 1400 Rocket 3.0 17:32:47 10° SSW 17:36:54 74° WNW 17:41:01 10° N
ATLAS 2AS CENTAUR R/B 3.6 17:34:54 10° NW 17:41:56 36° NNE 17:44:30 29° ENE
CZ-2C R/B 3.4 17:37:03 10° S 17:42:52 79° WSW 17:48:34 10° NNW
Cosmos 968 Rocket 3.4 17:39:05 10° NNW 17:44:22 89° ENE 17:47:57 21° SSE
Cosmos 2369 4.5 17:40:21 10° S 17:44:13 32° SE 17:44:13 32° SE
Cosmos 1076 Rocket 3.4 17:42:20 10° N 17:46:25 58° ENE 17:46:25 58° ENE
Cosmos 1689 Rocket 4.3 17:45:22 10° N 17:47:50 25° WNW 17:50:17 10° SW
ATLAS 5 CENTAUR R/B 4.0 17:45:09 10° NW 17:48:07 16° N 17:50:53 11° NNE
USA 305 2.9 17:44:21 10° WNW 17:48:37 63° NNE 17:49:00 60° NE
YAOGAN 1 3.1 17:44:29 10° S 17:48:44 59° W 17:53:02 10° NNW
HJ-1C 4.1 17:51:40 47° NNW 17:51:40 47° NNW 17:54:10 10° NNW
Cosmos 1302 Rocket 4.2 17:46:36 10° SSW 17:51:51 71° WNW 17:57:09 10° NNE
Meteor 2-10 Rocket 3.4 17:46:36 10° S 17:51:56 74° E 17:57:05 10° NNE
CRYOSAT 2 4.2 17:48:43 10° N 17:53:36 80° E 17:58:27 10° S
ARGOS 3.0 17:50:29 24° SSE 17:53:50 74° ENE 17:59:17 10° N
USA 306 2.9 17:50:38 10° WNW 17:54:55 67° NNE 17:55:01 66° NNE
Meteor 2-1 Rocket 4.0 17:49:41 10° S 17:55:09 69° E 18:00:39 10° NNE
Cosmos 1553 Rocket 4.1 17:48:57 10° SSW 17:55:19 77° W 18:01:38 10° N
Cosmos 1486 Rocket 4.2 17:50:03 10° NNW 17:55:23 74° WSW 17:59:22 18° SSE
SL-08 RB Rocket 4.1 17:56:56 47° NNE 17:56:56 47° NNE 18:00:30 10° N
Cosmos 2227 Rocket 2.5 17:53:42 10° NNW 17:59:20 66° WSW 18:03:35 18° S
Cosmos 1892 3.7 17:58:17 10° NNW 18:02:02 47° W 18:05:38 11° SSW
SL-4 R/B 2.4 17:58:40 10° WNW 18:01:41 49° NNW 18:01:41 49° NNW
Cosmos 1656 3.6 17:57:47 10° SSW 18:03:22 86° WNW 18:07:21 20° NNE
Cosmos 1503 Rocket 3.8 17:59:34 10° NNW 18:04:49 81° ENE 18:05:45 61° SE
Cosmos 1346 Rocket 3.2 18:01:21 10° NNW 18:05:18 62° W 18:06:07 49° SSW
MOS 1 Rocket 3.3 18:03:48 10° N 18:08:24 79° WNW 18:13:16 10° SSW
Okean-O 4.5 18:04:31 10° SSW 18:08:27 31° W 18:12:25 10° NNW
CSL-04 Rocket 4.0 18:02:58 10° S 18:08:30 66° WSW 18:14:00 10° NNW
Cosmos 2263 Rocket 3.2 18:03:43 10° NNW 18:07:58 31° NNE 18:07:58 31° NNE
BREEZE-M R/B 3.9 18:05:18 10° WNW 18:09:44 88° NNE 18:11:39 51° E
IRS-1A Rocket 4.3 18:10:18 57° ENE 18:10:18 57° ENE 18:15:31 10° N
Cosmos 1354 Rocket 3.8 18:09:47 10° NNW 18:15:05 86° ENE 18:15:25 78° SE
GEOS 3 Rocket 4.4 18:12:43 26° S 18:15:26 49° SW 18:20:41 10° NW
Cosmos 1697 Rocket 2.7 18:13:47 10° SSW 18:18:39 64° SSE 18:18:39 64° SSE
Meteor 2-15 Rocket 4.5 18:13:20 10° SSW 18:19:29 80° W 18:25:41 10° N
Cosmos 1745 Rocket 4.5 18:13:20 10° NNW 18:19:30 60° W 18:25:42 10° S
MOS 1 4.4 18:21:25 59° NE 18:21:25 59° NE 18:26:25 10° N
Cosmos 44 4.4 18:18:32 10° WSW 18:22:50 38° NW 18:24:23 30° N
CZ-4C R/B 3.6 18:17:48 10° NW 18:23:52 34° NNE 18:24:33 34° NE
Cosmos 1408 4.3 18:23:03 10° NNW 18:25:49 33° WNW 18:25:49 33° WNW
Lacrosse 5 3.0 18:22:29 10° WNW 18:26:52 33° N 18:26:52 33° N
H-2A R/B 3.1 18:23:06 10° S 18:28:16 46° W 18:33:31 10° NNW
Cosmos 1825 4.2 18:25:05 10° NNW 18:26:45 24° NNW 18:26:45 24° NNW
Cosmos 1992 Rocket 4.2 18:28:12 10° SSW 18:32:52 68° WSW 18:32:52 68° WSW
USA 307 4.2 18:32:46 10° WNW 18:35:30 38° WNW 18:35:30 38° WNW
Cosmos 2297 Rocket 4.0 18:34:28 10° NW 18:39:12 28° WSW 18:43:54 10° SSW
Ariane Rocket 3.7 18:41:47 49° NNW 18:41:47 49° NNW 18:45:29 10° NNW
USA 308 4.5 18:37:34 10° WNW 18:40:06 34° WNW 18:40:06 34° WNW
Cosmos 1709 Rocket 4.4 18:43:17 10° NNW 18:49:35 63° W 18:51:44 41° SSW
Cosmos 2315 Rocket 4.4 18:58:52 10° SSW 19:05:45 59° NW 19:11:11 10° N
NOSS 3-4 (A) 3.9 19:04:29 10° NW 19:10:31 71° NW 19:10:31 71° NW
NOSS 3-4 (C) 3.9 19:04:35 10° NW 19:10:36 70° NW 19:10:36 70° NW
SeaSat 1 4.3 19:11:59 25° WSW 19:12:10 25° WSW 19:16:12 10° NW
USA 215 3.6 19:20:27 60° W 19:20:27 60° W 19:25:51 10° WNW
ATLAS 2AS CENTAUR R/B 3.3 19:26:11 10° NW 19:31:55 55° NW 19:31:55 55° NW
Cosmos 2263 Rocket 4.2 19:47:29 10° NW 19:49:39 23° NW 19:49:39 23° NW
CZ-4C R/B 4.1 20:06:11 10° NW 20:09:44 34° NW 20:09:44 34° NW
